START_TIME,STEP,MOV.,H8,t_acc.,H43,t_acc.,M25,t_acc.,H9,t_acc.
1979-08-02 06:00:28.340 ,0,1,0.,12.0,0.,12.0,0.,12.0,0.,12.0
1979-08-02 06:00:40.340 ,0,1,0.,12.0,0.,12.0,0.,12.0,0.,12.0
1979-08-02 06:00:52.340 ,4,1,0.,12.0,0.,12.0,0.,12.0,0.,12.0
1979-08-02 06:01:04.340 ,4,1,0.,12.0,0.,12.0,0.,12.0,0.,12.0
1979-08-02 06:01:16.330 ,7,1,0.,12.0,0.,12.0,0.,12.0,0.,12.0
1979-08-02 06:01:28.340 ,7,1,0.,12.0,0.,12.0,0.,12.0,0.,12.0
1979-08-02 06:01:40.340 ,3,1,0.,12.0,0.,12.0,0.,12.0,0.,12.0
1979-08-02 06:01:52.340 ,3,1,0.,12.0,0.,12.0,0.,12.0,0.,12.0
1979-08-02 06:02:04.330 ,0,1,0.,12.0,0.,12.0,0.,12.0,0.,12.0
1979-08-02 06:02:16.340 ,0,1,0.,12.0,0.,12.0,0.,12.0,0.,12.0
1979-08-02 06:02:28.330 ,4,1,0.,12.0,0.,12.0,0.,12.0,0.,12.0
1979-08-02 06:02:40.330 ,4,1,0.,12.0,0.,12.0,0.,12.0,0.,12.0
1979-08-02 06:02:52.330 ,7,1,0.,12.0,0.,12.0,0.,12.0,0.,12.0
1979-08-02 06:03:04.330 ,7,1,0.,12.0,0.,12.0,0.,12.0,0.,12.0
1979-08-02 06:03:16.330 ,3,1,0.,12.0,0.,12.0,0.,12.0,0.,12.0
1979-08-02 06:03:28.330 ,3,1,0.,12.0,0.,12.0,0.,12.0,0.,12.0
1979-08-02 06:03:40.330 ,0,1,0.,12.0,0.,12.0,0.,12.0,0.,12.0
1979-08-02 06:03:52.330 ,0,1,0.,12.0,0.,12.0,0.,12.0,0.,12.0
1979-08-02 06:04:04.330 ,4,1,0.,12.0,0.,12.0,0.,12.0,0.,12.0
1979-08-02 06:04:16.330 ,4,1,0.,12.0,0.,12.0,0.,12.0,0.,12.0
1979-08-02 06:04:28.330 ,7,1,0.,12.0,0.,12.0,0.,12.0,0.,12.0
1979-08-02 06:04:40.330 ,7,1,0.,12.0,0.,12.0,0.,12.0,0.,12.0
1979-08-02 06:04:52.330 ,3,1,0.,12.0,0.,12.0,0.,12.0,0.,12.0
1979-08-02 06:05:04.330 ,3,1,0.,12.0,0.,12.0,0.,12.0,0.,12.0
1979-08-02 06:05:16.330 ,0,1,0.,12.0,0.,12.0,0.,12.0,0.,12.0
1979-08-02 06:05:28.330 ,0,1,0.,12.0,0.,12.0,0.,12.0,0.,12.0
1979-08-02 06:05:40.330 ,0,0,0.,12.0,0.,12.0,0.,12.0,0.,12.0
1979-08-02 06:05:52.330 ,0,0,0.,12.0,0.,12.0,0.,12.0,0.,12.0
1979-08-02 06:06:04.330 ,0,0,0.,12.0,0.,12.0,0.,12.0,0.,12.0
1979-08-02 06:06:16.330 ,0,0,0.,12.0,0.,12.0,0.,12.0,0.,12.0
1979-08-02 06:06:28.330 ,5,0,0.,12.0,0.,12.0,0.,12.0,0.,12.0
1979-08-02 06:06:40.330 ,5,0,0.,12.0,0.,12.0,0.,12.0,0.,12.0
1979-08-02 06:06:52.330 ,5,0,0.,12.0,0.,12.0,0.,12.0,0.,12.0
1979-08-02 06:07:04.330 ,5,0,0.,12.0,0.,12.0,0.,12.0,0.,12.0
1979-08-02 06:07:16.330 ,4,0,0.,12.0,0.,12.0,0.,12.0,0.,12.0
1979-08-02 06:07:28.330 ,4,0,0.,12.0,0.,12.0,0.,12.0,0.,12.0
1979-08-02 06:07:40.330 ,4,0,0.,12.0,0.,12.0,0.,12.0,0.,12.0
1979-08-02 06:07:52.330 ,4,0,0.,12.0,0.,12.0,0.,12.0,0.,12.0
1979-08-02 06:08:04.330 ,3,0,0.,12.0,0.,12.0,0.,12.0,0.,12.0
1979-08-02 06:08:16.330 ,3,0,0.,12.0,0.,12.0,0.,12.0,0.,12.0
1979-08-02 06:08:28.330 ,3,0,0.,12.0,0.,12.0,0.,12.0,0.,12.0
1979-08-02 06:08:40.330 ,3,0,0.,12.0,0.,12.0,0.,12.0,0.,12.0
1979-08-02 06:08:52.330 ,2,0,0.,12.0,0.,12.0,0.,12.0,0.,12.0
1979-08-02 06:09:04.330 ,2,0,0.,12.0,0.,12.0,0.,12.0,0.,12.0
1979-08-02 06:09:16.330 ,2,0,0.,12.0,0.,12.0,0.,12.0,0.,12.0
1979-08-02 06:09:28.330 ,2,0,0.,12.0,0.,12.0,0.,12.0,0.,12.0
1979-08-02 06:09:40.330 ,1,0,0.,12.0,0.,12.0,0.,12.0,0.,12.0
1979-08-02 06:09:52.330 ,1,0,0.,12.0,0.,12.0,0.,12.0,0.,12.0
1979-08-02 06:10:04.330 ,1,0,0.,12.0,0.,12.0,0.,12.0,0.,12.0
1979-08-02 06:10:16.330 ,1,0,0.,12.0,0.,12.0,0.,12.0,0.,12.0
1979-08-02 06:10:28.330 ,0,0,0.,12.0,0.,12.0,0.,12.0,0.,12.0
1979-08-02 06:10:40.330 ,0,0,0.,12.0,0.,12.0,0.,12.0,0.,12.0
1979-08-02 06:10:52.330 ,0,0,0.,12.0,0.,12.0,0.,12.0,0.,12.0
1979-08-02 06:11:04.330 ,0,0,0.,12.0,0.,12.0,0.,12.0,0.,12.0
1979-08-02 06:11:16.330 ,0,0,0.,12.0,0.,12.0,0.,12.0,0.,12.0
1979-08-02 06:11:28.330 ,0,0,0.,12.0,0.,12.0,0.,12.0,0.,12.0
1979-08-02 06:11:40.330 ,0,0,0.,12.0,0.,12.0,0.,12.0,0.,12.0
1979-08-02 06:11:52.330 ,0,0,0.,12.0,0.,12.0,0.,12.0,0.,12.0
1979-08-02 06:12:04.330 ,1,0,0.,12.0,0.,12.0,0.,12.0,0.,12.0
1979-08-02 06:12:16.330 ,1,0,0.,12.0,0.,12.0,0.,12.0,0.,12.0
1979-08-02 06:12:28.330 ,1,0,0.,12.0,0.,12.0,0.,12.0,0.,12.0
1979-08-02 06:12:40.330 ,1,0,0.,12.0,0.,12.0,0.,12.0,0.,12.0
1979-08-02 06:12:52.330 ,2,0,0.,12.0,0.,12.0,0.,12.0,0.,12.0
1979-08-02 06:13:04.330 ,2,0,0.,12.0,0.,12.0,0.,12.0,0.,12.0
1979-08-02 06:13:16.330 ,2,0,0.,12.0,0.,12.0,0.,12.0,0.,12.0
1979-08-02 06:13:28.330 ,2,0,0.,12.0,0.,12.0,0.,12.0,0.,12.0
1979-08-02 06:13:40.330 ,3,0,0.,12.0,0.,12.0,0.,12.0,0.,12.0
1979-08-02 06:13:52.330 ,3,0,0.,12.0,0.,12.0,0.,12.0,0.,12.0
1979-08-02 06:14:04.330 ,3,0,0.,12.0,0.,12.0,0.,12.0,0.,12.0
1979-08-02 06:14:16.330 ,3,0,0.,12.0,0.,12.0,0.,12.0,0.,12.0
1979-08-02 06:14:28.330 ,4,0,0.,12.0,0.,12.0,0.,12.0,0.,12.0
1979-08-02 06:14:40.330 ,4,0,0.,12.0,0.,12.0,0.,12.0,0.,12.0
1979-08-02 06:14:52.330 ,4,0,0.,12.0,0.,12.0,0.,12.0,0.,12.0
1979-08-02 06:15:04.330 ,4,0,0.,12.0,0.,12.0,0.,12.0,0.,12.0
1979-08-02 06:15:16.330 ,5,0,0.,12.0,0.,12.0,0.,12.0,0.,12.0
1979-08-02 06:15:28.330 ,5,0,0.,12.0,0.,12.0,0.,12.0,0.,12.0
1979-08-02 06:15:40.330 ,5,0,0.,12.0,0.,12.0,0.,12.0,0.,12.0
1979-08-02 06:15:52.330 ,5,0,0.,12.0,0.,12.0,0.,12.0,0.,12.0
1979-08-02 06:16:04.330 ,6,0,0.,12.0,0.,12.0,0.,12.0,0.,12.0
1979-08-02 06:16:16.330 ,6,0,0.,12.0,0.,12.0,0.,12.0,0.,12.0
1979-08-02 06:16:28.330 ,6,0,0.,12.0,0.,12.0,0.,12.0,0.,12.0
1979-08-02 06:16:40.330 ,6,0,0.,12.0,0.,12.0,0.,12.0,0.,12.0
1979-08-02 06:16:52.330 ,7,0,0.,12.0,0.,12.0,0.,12.0,0.,12.0
1979-08-02 06:17:04.330 ,7,0,0.,12.0,0.,12.0,0.,12.0,0.,12.0
1979-08-02 06:17:16.330 ,7,0,0.,12.0,0.,12.0,0.,12.0,0.,12.0
1979-08-02 06:17:28.330 ,7,0,0.,12.0,0.,12.0,0.,12.0,0.,12.0
1979-08-02 06:17:40.330 ,7,0,0.,12.0,0.,12.0,0.,12.0,0.,12.0
1979-08-02 06:17:52.330 ,7,0,0.,12.0,0.,12.0,0.,12.0,0.,12.0
1979-08-02 06:18:04.330 ,7,0,0.,12.0,0.,12.0,0.,12.0,0.,12.0
1979-08-02 06:18:16.330 ,7,0,0.,12.0,0.,12.0,0.,12.0,0.,12.0
1979-08-02 06:18:28.330 ,6,0,0.,12.0,0.,12.0,0.,12.0,0.,12.0
1979-08-02 06:18:40.330 ,6,0,0.,12.0,0.,12.0,0.,12.0,0.,12.0
1979-08-02 06:18:52.330 ,6,0,0.,12.0,0.,12.0,0.,12.0,0.,12.0
1979-08-02 06:19:04.330 ,6,0,0.,12.0,0.,12.0,0.,12.0,0.,12.0
1979-08-02 06:19:16.330 ,5,0,0.,12.0,0.,12.0,0.,12.0,0.,12.0
1979-08-02 06:19:28.330 ,5,0,0.,12.0,0.,12.0,0.,12.0,0.,12.0
1979-08-02 06:19:40.330 ,5,0,0.,12.0,0.,12.0,0.,12.0,0.,12.0
1979-08-02 06:19:52.330 ,5,0,0.,12.0,0.,12.0,0.,12.0,0.,12.0
1979-08-02 06:20:04.330 ,4,0,0.,12.0,0.,12.0,0.,12.0,0.,12.0
1979-08-02 06:20:16.330 ,4,0,0.,12.0,0.,12.0,0.,12.0,0.,12.0
1979-08-02 06:20:28.330 ,4,0,0.,12.0,0.,12.0,0.,12.0,0.,12.0
1979-08-02 06:20:40.330 ,4,0,0.,12.0,0.,12.0,0.,12.0,0.,12.0
1979-08-02 06:20:52.330 ,3,0,0.,12.0,0.,12.0,0.,12.0,0.,12.0
1979-08-02 06:21:04.330 ,3,0,0.,12.0,0.,12.0,0.,12.0,0.,12.0
1979-08-02 06:21:16.330 ,3,0,0.,12.0,0.,12.0,0.,12.0,0.,12.0
1979-08-02 06:21:28.330 ,3,0,0.,12.0,0.,12.0,0.,12.0,0.,12.0
1979-08-02 06:21:40.330 ,2,0,0.,12.0,0.,12.0,0.,12.0,0.,12.0
1979-08-02 06:21:52.330 ,2,0,0.,12.0,0.,12.0,0.,12.0,0.,12.0
1979-08-02 06:22:04.330 ,2,0,0.,12.0,0.,12.0,0.,12.0,0.,12.0
1979-08-02 06:22:16.330 ,2,0,0.,12.0,0.,12.0,0.,12.0,0.,12.0
1979-08-02 06:22:28.330 ,1,0,0.,12.0,0.,12.0,0.,12.0,0.,12.0
1979-08-02 06:22:40.330 ,1,0,0.,12.0,0.,12.0,0.,12.0,0.,12.0
1979-08-02 06:22:52.330 ,1,0,0.,12.0,0.,12.0,0.,12.0,0.,12.0
1979-08-02 06:23:04.330 ,1,0,0.,12.0,0.,12.0,0.,12.0,0.,12.0
1979-08-02 06:23:16.330 ,0,0,0.,12.0,0.,12.0,0.,12.0,0.,12.0
1979-08-02 06:23:28.330 ,0,0,0.,12.0,0.,12.0,0.,12.0,0.,12.0
1979-08-02 06:23:40.330 ,0,0,0.,12.0,0.,12.0,0.,12.0,0.,12.0
1979-08-02 06:23:52.330 ,0,0,0.,12.0,0.,12.0,0.,12.0,0.,12.0
1979-08-02 06:24:04.330 ,0,0,0.,12.0,0.,12.0,0.,12.0,0.,12.0
1979-08-02 06:24:16.330 ,0,0,0.,12.0,0.,12.0,0.,12.0,0.,12.0
1979-08-02 06:24:28.330 ,0,0,0.,12.0,0.,12.0,0.,12.0,0.,12.0
1979-08-02 06:24:40.330 ,0,0,0.,12.0,0.,12.0,0.,12.0,0.,12.0
1979-08-02 06:24:52.330 ,1,0,0.,12.0,0.,12.0,0.,12.0,0.,12.0
1979-08-02 06:25:04.330 ,1,0,0.,12.0,0.,12.0,0.,12.0,0.,12.0
1979-08-02 06:25:16.330 ,1,0,0.,12.0,0.,12.0,0.,12.0,0.,12.0
1979-08-02 06:25:28.330 ,1,0,0.,12.0,0.,12.0,0.,12.0,0.,12.0
1979-08-02 06:25:40.330 ,2,0,0.,12.0,0.,12.0,0.,12.0,0.,12.0
1979-08-02 06:25:52.330 ,2,0,0.,12.0,0.,12.0,0.,12.0,0.,12.0
1979-08-02 06:26:04.330 ,2,0,0.,12.0,0.,12.0,0.,12.0,0.,12.0
1979-08-02 06:26:16.330 ,2,0,0.,12.0,0.,12.0,0.,12.0,0.,12.0
1979-08-02 06:26:28.330 ,3,0,0.,12.0,0.,12.0,0.,12.0,0.,12.0
1979-08-02 06:26:40.330 ,3,0,0.,12.0,0.,12.0,0.,12.0,0.,12.0
1979-08-02 06:26:52.330 ,3,0,0.,12.0,0.,12.0,0.,12.0,0.,12.0
1979-08-02 06:27:04.330 ,3,0,0.,12.0,0.,12.0,0.,12.0,0.,12.0
1979-08-02 06:27:16.330 ,4,0,0.,12.0,0.,12.0,0.,12.0,0.,12.0
1979-08-02 06:27:28.330 ,4,0,0.,12.0,0.,12.0,0.,12.0,0.,12.0
1979-08-02 06:27:40.330 ,4,0,0.,12.0,0.,12.0,0.,12.0,0.,12.0
1979-08-02 06:27:52.330 ,4,0,0.,12.0,0.,12.0,0.,12.0,0.,12.0
1979-08-02 06:28:04.330 ,5,0,0.,12.0,0.,12.0,0.,12.0,0.,12.0
1979-08-02 06:28:16.330 ,5,0,0.,12.0,0.,12.0,0.,12.0,0.,12.0
1979-08-02 06:28:28.330 ,5,0,0.,12.0,0.,12.0,0.,12.0,0.,12.0
1979-08-02 06:28:40.330 ,5,0,0.,12.0,0.,12.0,0.,12.0,0.,12.0
1979-08-02 06:28:52.330 ,6,0,0.,12.0,0.,12.0,0.,12.0,0.,12.0
1979-08-02 06:29:04.330 ,6,0,0.,12.0,0.,12.0,0.,12.0,0.,12.0
1979-08-02 06:29:16.330 ,6,0,0.,12.0,0.,12.0,0.,12.0,0.,12.0
1979-08-02 06:29:28.330 ,6,0,0.,12.0,0.,12.0,0.,12.0,0.,12.0
1979-08-02 06:29:40.330 ,7,0,0.,12.0,0.,12.0,0.,12.0,0.,12.0
1979-08-02 06:29:52.330 ,7,0,0.,12.0,0.,12.0,0.,12.0,0.,12.0
1979-08-02 06:30:04.330 ,7,0,0.,12.0,0.,12.0,0.,12.0,0.,12.0
1979-08-02 06:30:16.330 ,7,0,0.,12.0,0.,12.0,0.,12.0,0.,12.0
1979-08-02 06:30:28.330 ,7,0,0.,12.0,0.,12.0,0.,12.0,0.,12.0
1979-08-02 06:30:40.330 ,7,0,0.,12.0,0.,12.0,0.,12.0,0.,12.0
1979-08-02 06:30:52.330 ,7,0,0.,12.0,0.,12.0,0.,12.0,0.,12.0
1979-08-02 06:31:04.330 ,7,0,0.,12.0,0.,12.0,0.,12.0,0.,12.0
1979-08-02 06:31:16.330 ,6,0,0.,12.0,0.,12.0,0.,12.0,0.,12.0
1979-08-02 06:31:28.330 ,6,0,0.,12.0,0.,12.0,0.,12.0,0.,12.0
1979-08-02 06:31:40.330 ,6,0,0.,12.0,0.,12.0,0.,12.0,0.,12.0
1979-08-02 06:31:52.330 ,6,0,0.,12.0,0.,12.0,0.,12.0,0.,12.0
1979-08-02 06:32:04.330 ,5,0,0.,12.0,0.,12.0,0.,12.0,0.,12.0
1979-08-02 06:32:16.330 ,5,0,0.,12.0,0.,12.0,0.,12.0,0.,12.0
1979-08-02 06:32:28.330 ,5,0,0.,12.0,0.,12.0,0.,12.0,0.,12.0
1979-08-02 06:32:40.330 ,5,0,0.,12.0,0.,12.0,0.,12.0,0.,12.0
1979-08-02 06:32:52.330 ,4,0,0.,12.0,0.,12.0,0.,12.0,0.,12.0
1979-08-02 06:33:04.330 ,4,0,0.,12.0,0.,12.0,0.,12.0,0.,12.0
1979-08-02 06:33:16.330 ,4,0,0.,12.0,0.,12.0,0.,12.0,0.,12.0
1979-08-02 06:33:28.330 ,4,0,0.,12.0,0.,12.0,0.,12.0,0.,12.0
1979-08-02 06:33:40.330 ,3,0,0.,12.0,0.,12.0,0.,12.0,0.,12.0
1979-08-02 06:33:52.330 ,3,0,0.,12.0,0.,12.0,0.,12.0,0.,12.0
1979-08-02 06:34:04.330 ,3,0,0.,12.0,0.,12.0,0.,12.0,0.,12.0
1979-08-02 06:34:16.330 ,3,0,0.,12.0,0.,12.0,0.,12.0,0.,12.0
1979-08-02 06:34:28.330 ,2,0,0.,12.0,0.,12.0,0.,12.0,0.,12.0
1979-08-02 06:34:40.330 ,2,0,0.,12.0,0.,12.0,0.,12.0,0.,12.0
1979-08-02 06:34:52.330 ,2,0,0.,12.0,0.,12.0,0.,12.0,0.,12.0
1979-08-02 06:35:04.330 ,2,0,0.,12.0,0.,12.0,0.,12.0,0.,12.0
1979-08-02 06:35:16.330 ,1,0,0.,12.0,0.,12.0,0.,12.0,0.,12.0
1979-08-02 06:35:28.330 ,1,0,0.,12.0,0.,12.0,0.,12.0,0.,12.0
1979-08-02 06:35:40.330 ,1,0,0.,12.0,0.,12.0,0.,12.0,0.,12.0
1979-08-02 06:35:52.330 ,1,0,0.,12.0,0.,12.0,0.,12.0,0.,12.0
1979-08-02 06:36:04.330 ,0,0,0.,12.0,0.,12.0,0.,12.0,0.,12.0
1979-08-02 06:36:16.330 ,0,0,0.,12.0,0.,12.0,0.,12.0,0.,12.0
1979-08-02 06:36:28.330 ,0,0,0.,12.0,0.,12.0,0.,12.0,0.,12.0
1979-08-02 06:36:40.330 ,0,0,0.,12.0,0.,12.0,0.,12.0,0.,12.0
1979-08-02 06:36:52.330 ,0,0,0.,12.0,0.,12.0,0.,12.0,0.,12.0
1979-08-02 06:37:04.330 ,0,0,0.,12.0,0.,12.0,0.,12.0,0.,12.0
1979-08-02 06:37:16.330 ,0,0,0.,12.0,0.,12.0,0.,12.0,0.,12.0
1979-08-02 06:37:28.330 ,0,0,1.,12.0,0.,12.0,0.,12.0,0.,12.0
1979-08-02 06:37:40.330 ,1,0,0.,12.0,0.,12.0,0.,12.0,0.,12.0
1979-08-02 06:37:52.330 ,1,0,0.,12.0,0.,12.0,0.,12.0,0.,12.0
1979-08-02 06:38:04.330 ,1,0,0.,12.0,0.,12.0,0.,12.0,0.,12.0
1979-08-02 06:38:16.330 ,1,0,0.,12.0,0.,12.0,0.,12.0,0.,12.0
1979-08-02 06:38:28.330 ,2,0,0.,12.0,0.,12.0,0.,12.0,0.,12.0
1979-08-02 06:38:40.330 ,2,0,0.,12.0,0.,12.0,0.,12.0,0.,12.0
1979-08-02 06:38:52.330 ,2,0,0.,12.0,0.,12.0,0.,12.0,0.,12.0
1979-08-02 06:39:04.330 ,2,0,0.,12.0,0.,12.0,0.,12.0,0.,12.0
1979-08-02 06:39:16.330 ,3,0,0.,12.0,0.,12.0,0.,12.0,0.,12.0
1979-08-02 06:39:28.330 ,3,0,0.,12.0,0.,12.0,0.,12.0,0.,12.0
1979-08-02 06:39:40.330 ,3,0,0.,12.0,0.,12.0,0.,12.0,0.,12.0
1979-08-02 06:39:52.330 ,3,0,0.,12.0,0.,12.0,0.,12.0,0.,12.0
1979-08-02 06:40:04.330 ,4,0,0.,12.0,0.,12.0,0.,12.0,0.,12.0
1979-08-02 06:40:16.330 ,4,0,0.,12.0,0.,12.0,0.,12.0,0.,12.0
1979-08-02 06:40:28.330 ,4,0,0.,12.0,0.,12.0,0.,12.0,0.,12.0
1979-08-02 06:40:40.330 ,4,0,0.,12.0,0.,12.0,0.,12.0,0.,12.0
1979-08-02 06:40:52.330 ,5,0,0.,12.0,0.,12.0,0.,12.0,0.,12.0
1979-08-02 06:41:04.330 ,5,0,0.,12.0,0.,12.0,0.,12.0,0.,12.0
1979-08-02 06:41:16.330 ,5,0,0.,12.0,0.,12.0,0.,12.0,0.,12.0
1979-08-02 06:41:28.330 ,5,0,0.,12.0,0.,12.0,0.,12.0,0.,12.0
1979-08-02 06:41:40.330 ,6,0,0.,12.0,0.,12.0,0.,12.0,0.,12.0
1979-08-02 06:41:52.330 ,6,0,0.,12.0,0.,12.0,0.,12.0,0.,12.0
1979-08-02 06:42:04.330 ,6,0,0.,12.0,0.,12.0,0.,12.0,0.,12.0
1979-08-02 06:42:16.330 ,6,0,0.,12.0,0.,12.0,0.,12.0,0.,12.0
1979-08-02 06:42:28.330 ,7,0,0.,12.0,0.,12.0,0.,12.0,0.,12.0
1979-08-02 06:42:40.330 ,7,0,0.,12.0,0.,12.0,0.,12.0,0.,12.0
1979-08-02 06:42:52.330 ,7,0,0.,12.0,0.,12.0,0.,12.0,0.,12.0
1979-08-02 06:43:04.330 ,7,0,0.,12.0,0.,12.0,0.,12.0,0.,12.0
1979-08-02 06:43:16.330 ,3,1,0.,12.0,0.,12.0,0.,12.0,0.,12.0
1979-08-02 06:43:28.330 ,3,1,0.,12.0,0.,12.0,0.,12.0,0.,12.0
1979-08-02 06:43:40.330 ,0,1,0.,12.0,0.,12.0,0.,12.0,0.,12.0
1979-08-02 06:43:52.330 ,0,1,0.,12.0,0.,12.0,0.,12.0,0.,12.0
1979-08-02 06:44:04.330 ,4,1,0.,12.0,0.,12.0,0.,12.0,0.,12.0
1979-08-02 06:44:16.330 ,4,1,0.,12.0,0.,12.0,0.,12.0,0.,12.0
1979-08-02 06:44:28.330 ,7,1,0.,12.0,0.,12.0,0.,12.0,0.,12.0
1979-08-02 06:44:40.330 ,7,1,0.,12.0,0.,12.0,0.,12.0,0.,12.0
1979-08-02 06:44:52.330 ,3,1,0.,12.0,0.,12.0,0.,12.0,0.,12.0
1979-08-02 06:45:04.330 ,3,1,0.,12.0,0.,12.0,0.,12.0,0.,12.0
1979-08-02 06:45:16.330 ,0,1,0.,12.0,0.,12.0,0.,12.0,0.,12.0
1979-08-02 06:45:28.330 ,0,1,0.,12.0,0.,12.0,0.,12.0,0.,12.0
1979-08-02 06:45:40.330 ,4,1,0.,12.0,0.,12.0,0.,12.0,0.,12.0
1979-08-02 06:45:52.330 ,4,1,0.,12.0,0.,12.0,0.,12.0,0.,12.0
1979-08-02 06:46:04.330 ,7,1,0.,12.0,0.,12.0,0.,12.0,0.,12.0
1979-08-02 06:46:16.330 ,7,1,0.,12.0,0.,12.0,0.,12.0,0.,12.0
1979-08-02 06:46:28.330 ,3,1,0.,12.0,0.,12.0,0.,12.0,0.,12.0
1979-08-02 06:46:40.330 ,3,1,0.,12.0,0.,12.0,0.,12.0,0.,12.0
1979-08-02 06:46:52.330 ,0,1,0.,12.0,0.,12.0,0.,12.0,0.,12.0
1979-08-02 06:47:04.330 ,0,1,0.,12.0,0.,12.0,0.,12.0,0.,12.0
1979-08-02 06:47:16.330 ,4,1,0.,12.0,0.,12.0,0.,12.0,0.,12.0
1979-08-02 06:47:28.330 ,4,1,0.,12.0,0.,12.0,0.,12.0,0.,12.0
1979-08-02 06:47:40.330 ,7,1,0.,12.0,0.,12.0,0.,12.0,0.,12.0
1979-08-02 06:47:52.330 ,7,1,0.,12.0,0.,12.0,0.,12.0,0.,12.0
1979-08-02 06:48:04.330 ,3,1,0.,12.0,0.,12.0,0.,12.0,0.,12.0
1979-08-02 06:48:16.330 ,3,1,0.,12.0,0.,12.0,0.,12.0,0.,12.0
1979-08-02 06:48:28.330 ,0,1,0.,12.0,0.,12.0,0.,12.0,0.,12.0
1979-08-02 06:48:40.330 ,0,1,0.,12.0,0.,12.0,0.,12.0,0.,12.0
1979-08-02 06:48:52.330 ,4,1,0.,12.0,0.,12.0,0.,12.0,0.,12.0
1979-08-02 06:49:04.330 ,4,1,0.,12.0,0.,12.0,0.,12.0,0.,12.0
1979-08-02 06:49:16.330 ,7,1,0.,12.0,0.,12.0,0.,12.0,0.,12.0
1979-08-02 06:49:28.330 ,7,1,0.,12.0,0.,12.0,0.,12.0,0.,12.0
1979-08-02 06:49:40.330 ,3,1,0.,12.0,0.,12.0,0.,12.0,0.,12.0
1979-08-02 06:49:52.330 ,3,1,0.,12.0,0.,12.0,0.,12.0,0.,12.0
1979-08-02 06:50:04.330 ,0,1,0.,12.0,0.,12.0,0.,12.0,0.,12.0
1979-08-02 06:50:16.330 ,0,1,0.,12.0,0.,12.0,0.,12.0,0.,12.0
1979-08-02 06:50:28.330 ,4,1,0.,12.0,0.,12.0,0.,12.0,0.,12.0
1979-08-02 06:50:40.330 ,4,1,0.,12.0,0.,12.0,0.,12.0,0.,12.0
1979-08-02 06:50:52.330 ,7,1,0.,12.0,0.,12.0,0.,12.0,0.,12.0
1979-08-02 06:51:04.330 ,7,1,0.,12.0,0.,12.0,0.,12.0,0.,12.0
1979-08-02 06:51:16.330 ,3,1,0.,12.0,0.,12.0,0.,12.0,0.,12.0
1979-08-02 06:51:28.330 ,3,1,0.,12.0,0.,12.0,0.,12.0,0.,12.0
1979-08-02 06:51:40.330 ,0,1,0.,12.0,0.,12.0,0.,12.0,0.,12.0
1979-08-02 06:51:52.330 ,0,1,0.,12.0,0.,12.0,0.,12.0,0.,12.0
1979-08-02 06:52:04.330 ,4,1,0.,12.0,0.,12.0,0.,12.0,0.,12.0
1979-08-02 06:52:16.330 ,4,1,0.,12.0,0.,12.0,0.,12.0,0.,12.0
1979-08-02 06:52:28.330 ,7,1,0.,12.0,0.,12.0,0.,12.0,0.,12.0
1979-08-02 06:52:40.330 ,7,1,0.,12.0,0.,12.0,0.,12.0,0.,12.0
1979-08-02 06:52:52.330 ,3,1,0.,12.0,0.,12.0,0.,12.0,0.,12.0
1979-08-02 06:53:04.330 ,3,1,0.,12.0,0.,12.0,0.,12.0,0.,12.0
1979-08-02 06:53:16.330 ,0,1,0.,12.0,0.,12.0,0.,12.0,0.,12.0
1979-08-02 06:53:28.330 ,0,1,0.,12.0,0.,12.0,0.,12.0,0.,12.0
1979-08-02 06:53:40.330 ,0,0,0.,12.0,0.,12.0,0.,12.0,0.,12.0
1979-08-02 06:53:52.330 ,0,0,0.,12.0,0.,12.0,0.,12.0,0.,12.0
1979-08-02 06:54:04.330 ,0,0,0.,12.0,0.,12.0,0.,12.0,0.,12.0
1979-08-02 06:54:16.330 ,0,0,0.,12.0,0.,12.0,0.,12.0,0.,12.0
1979-08-02 06:54:28.330 ,5,0,0.,12.0,0.,12.0,0.,12.0,0.,12.0
1979-08-02 06:54:40.330 ,5,0,0.,12.0,0.,12.0,0.,12.0,0.,12.0
1979-08-02 06:54:52.330 ,5,0,0.,12.0,0.,12.0,0.,12.0,0.,12.0
1979-08-02 06:55:04.330 ,5,0,0.,12.0,0.,12.0,0.,12.0,0.,12.0
1979-08-02 06:55:16.330 ,4,0,0.,12.0,0.,12.0,0.,12.0,0.,12.0
1979-08-02 06:55:28.330 ,4,0,0.,12.0,0.,12.0,0.,12.0,0.,12.0
1979-08-02 06:55:40.330 ,4,0,0.,12.0,0.,12.0,0.,12.0,0.,12.0
1979-08-02 06:55:52.330 ,4,0,0.,12.0,0.,12.0,0.,12.0,0.,12.0
1979-08-02 06:56:04.330 ,0,0,0.,12.0,0.,12.0,0.,12.0,0.,12.0
1979-08-02 06:56:16.330 ,0,0,0.,12.0,0.,12.0,0.,12.0,0.,12.0
1979-08-02 06:56:28.330 ,0,0,,0,,0,,0,,0
1979-08-02 06:56:40.330 ,0,0,0.,12.0,0.,12.0,0.,12.0,0.,12.0
1979-08-02 06:56:52.330 ,2,0,0.,12.0,0.,12.0,0.,12.0,0.,12.0
1979-08-02 06:57:04.330 ,2,0,0.,12.0,0.,12.0,0.,12.0,0.,12.0
1979-08-02 06:57:16.330 ,2,0,0.,12.0,0.,12.0,0.,12.0,0.,12.0
1979-08-02 06:57:28.330 ,2,0,0.,12.0,0.,12.0,0.,12.0,0.,12.0
1979-08-02 06:57:40.330 ,1,0,0.,12.0,0.,12.0,0.,12.0,0.,12.0
1979-08-02 06:57:52.330 ,1,0,0.,12.0,0.,12.0,0.,12.0,0.,12.0
1979-08-02 06:58:04.330 ,1,0,0.,12.0,0.,12.0,0.,12.0,0.,12.0
1979-08-02 06:58:16.330 ,1,0,0.,12.0,0.,12.0,0.,12.0,0.,12.0
1979-08-02 06:58:28.330 ,0,0,0.,12.0,0.,12.0,0.,12.0,0.,12.0
1979-08-02 06:58:40.330 ,0,0,0.,12.0,0.,12.0,0.,12.0,0.,12.0
1979-08-02 06:58:52.330 ,0,0,0.,12.0,0.,12.0,0.,12.0,0.,12.0
1979-08-02 06:59:04.330 ,0,0,0.,12.0,0.,12.0,0.,12.0,0.,12.0
1979-08-02 06:59:16.330 ,0,0,0.,12.0,0.,12.0,0.,12.0,0.,12.0
1979-08-02 06:59:28.330 ,0,0,0.,12.0,0.,12.0,0.,12.0,0.,12.0
1979-08-02 06:59:40.330 ,0,0,0.,12.0,0.,12.0,0.,12.0,0.,12.0
1979-08-02 06:59:52.330 ,0,0,0.,12.0,0.,12.0,0.,12.0,0.,12.0
1979-08-02 07:00:04.330 ,1,0,0.,12.0,0.,12.0,0.,12.0,0.,12.0
1979-08-02 07:00:16.330 ,1,0,0.,12.0,0.,12.0,0.,12.0,0.,12.0
1979-08-02 07:00:28.330 ,1,0,0.,12.0,0.,12.0,0.,12.0,0.,12.0
1979-08-02 07:00:40.330 ,1,0,0.,12.0,0.,12.0,0.,12.0,0.,12.0
1979-08-02 07:00:52.330 ,2,0,0.,12.0,0.,12.0,0.,12.0,0.,12.0
1979-08-02 07:01:04.330 ,2,0,0.,12.0,0.,12.0,0.,12.0,0.,12.0
1979-08-02 07:01:16.330 ,2,0,0.,12.0,0.,12.0,0.,12.0,0.,12.0
1979-08-02 07:01:28.330 ,2,0,0.,12.0,0.,12.0,0.,12.0,0.,12.0
1979-08-02 07:01:40.330 ,3,0,0.,12.0,0.,12.0,0.,12.0,0.,12.0
1979-08-02 07:01:52.330 ,3,0,0.,12.0,0.,12.0,0.,12.0,0.,12.0
1979-08-02 07:02:04.330 ,3,0,0.,12.0,0.,12.0,0.,12.0,0.,12.0
1979-08-02 07:02:16.330 ,3,0,0.,12.0,0.,12.0,0.,12.0,0.,12.0
1979-08-02 07:02:28.330 ,4,0,0.,12.0,0.,12.0,0.,12.0,0.,12.0
1979-08-02 07:02:40.330 ,4,0,0.,12.0,0.,12.0,0.,12.0,0.,12.0
1979-08-02 07:02:52.330 ,4,0,0.,12.0,0.,12.0,0.,12.0,0.,12.0
1979-08-02 07:03:04.330 ,4,0,0.,12.0,0.,12.0,0.,12.0,0.,12.0
1979-08-02 07:03:16.330 ,5,0,0.,12.0,0.,12.0,0.,12.0,0.,12.0
1979-08-02 07:03:28.330 ,5,0,0.,12.0,0.,12.0,0.,12.0,0.,12.0
1979-08-02 07:03:40.330 ,5,0,0.,12.0,0.,12.0,0.,12.0,0.,12.0
1979-08-02 07:03:52.330 ,5,0,0.,12.0,0.,12.0,0.,12.0,0.,12.0
1979-08-02 07:04:04.330 ,6,0,0.,12.0,0.,12.0,0.,12.0,0.,12.0
1979-08-02 07:04:16.330 ,6,0,0.,12.0,0.,12.0,0.,12.0,0.,12.0
1979-08-02 07:04:28.330 ,6,0,0.,12.0,0.,12.0,0.,12.0,0.,12.0
1979-08-02 07:04:40.330 ,6,0,0.,12.0,0.,12.0,0.,12.0,0.,12.0
1979-08-02 07:04:52.330 ,7,0,0.,12.0,0.,12.0,0.,12.0,0.,12.0
1979-08-02 07:05:04.330 ,7,0,0.,12.0,0.,12.0,0.,12.0,0.,12.0
1979-08-02 07:05:16.330 ,7,0,0.,12.0,0.,12.0,0.,12.0,0.,12.0
1979-08-02 07:05:28.330 ,7,0,0.,12.0,0.,12.0,0.,12.0,0.,12.0
1979-08-02 07:05:40.330 ,7,0,0.,12.0,0.,12.0,0.,12.0,0.,12.0
1979-08-02 07:05:52.330 ,7,0,0.,12.0,0.,12.0,0.,12.0,0.,12.0
1979-08-02 07:06:04.330 ,7,0,0.,12.0,0.,12.0,0.,12.0,0.,12.0
1979-08-02 07:06:16.330 ,7,0,0.,12.0,0.,12.0,0.,12.0,0.,12.0
1979-08-02 07:06:28.330 ,6,0,0.,12.0,0.,12.0,0.,12.0,0.,12.0
1979-08-02 07:06:40.330 ,6,0,0.,12.0,0.,12.0,0.,12.0,0.,12.0
1979-08-02 07:06:52.330 ,6,0,0.,12.0,0.,12.0,0.,12.0,0.,12.0
1979-08-02 07:07:04.330 ,6,0,0.,12.0,0.,12.0,0.,12.0,0.,12.0
1979-08-02 07:07:16.330 ,5,0,0.,12.0,0.,12.0,0.,12.0,0.,12.0
1979-08-02 07:07:28.330 ,5,0,0.,12.0,0.,12.0,0.,12.0,0.,12.0
1979-08-02 07:07:40.330 ,5,0,0.,12.0,0.,12.0,0.,12.0,0.,12.0
1979-08-02 07:07:52.330 ,5,0,0.,12.0,0.,12.0,0.,12.0,0.,12.0
1979-08-02 07:08:04.330 ,4,0,0.,12.0,0.,12.0,0.,12.0,0.,12.0
1979-08-02 07:08:16.330 ,4,0,0.,12.0,0.,12.0,0.,12.0,0.,12.0
1979-08-02 07:08:28.330 ,4,0,0.,12.0,0.,12.0,0.,12.0,0.,12.0
1979-08-02 07:08:40.330 ,4,0,0.,12.0,0.,12.0,0.,12.0,0.,12.0
1979-08-02 07:08:52.330 ,3,0,0.,12.0,0.,12.0,0.,12.0,0.,12.0
1979-08-02 07:09:04.330 ,3,0,0.,12.0,0.,12.0,0.,12.0,0.,12.0
1979-08-02 07:09:16.330 ,3,0,0.,12.0,0.,12.0,0.,12.0,0.,12.0
1979-08-02 07:09:28.330 ,3,0,0.,12.0,0.,12.0,0.,12.0,0.,12.0
1979-08-02 07:09:40.330 ,2,0,0.,12.0,0.,12.0,0.,12.0,0.,12.0
1979-08-02 07:09:52.330 ,2,0,0.,12.0,0.,12.0,0.,12.0,0.,12.0
1979-08-02 07:10:04.330 ,2,0,0.,12.0,0.,12.0,0.,12.0,0.,12.0
1979-08-02 07:10:16.330 ,2,0,0.,12.0,0.,12.0,0.,12.0,0.,12.0
1979-08-02 07:10:28.330 ,1,0,0.,12.0,0.,12.0,0.,12.0,0.,12.0
1979-08-02 07:10:40.330 ,1,0,0.,12.0,0.,12.0,0.,12.0,0.,12.0
1979-08-02 07:10:52.330 ,1,0,0.,12.0,0.,12.0,0.,12.0,0.,12.0
1979-08-02 07:11:04.330 ,1,0,0.,12.0,0.,12.0,0.,12.0,0.,12.0
1979-08-02 07:11:16.330 ,0,0,0.,12.0,0.,12.0,0.,12.0,0.,12.0
1979-08-02 07:11:28.330 ,0,0,0.,12.0,0.,12.0,0.,12.0,0.,12.0
1979-08-02 07:11:40.330 ,0,0,0.,12.0,0.,12.0,0.,12.0,0.,12.0
1979-08-02 07:11:52.330 ,0,0,0.,12.0,0.,12.0,0.,12.0,0.,12.0
1979-08-02 07:12:04.330 ,0,0,0.,12.0,0.,12.0,0.,12.0,0.,12.0
1979-08-02 07:12:16.330 ,0,0,0.,12.0,0.,12.0,0.,12.0,0.,12.0
1979-08-02 07:12:28.330 ,0,0,0.,12.0,0.,12.0,0.,12.0,0.,12.0
1979-08-02 07:12:40.330 ,0,0,0.,12.0,0.,12.0,0.,12.0,0.,12.0
1979-08-02 07:12:52.330 ,0,0,0.,12.0,0.,12.0,0.,12.0,0.,12.0
1979-08-02 07:13:04.330 ,0,0,,0,,0,,0,,0
1979-08-02 07:13:16.330 ,0,0,,0,,0,,0,,0
1979-08-02 07:13:28.330 ,0,0,,0,,0,,0,,0
1979-08-02 07:14:36.730 ,0,0,,0,,0,,0,,0
1979-08-02 07:14:48.730 ,0,0,0.,12.0,0.,12.0,0.,12.0,0.,12.0
1979-08-02 07:14:52.330 ,0,0,0.,12.0,0.,12.0,0.,12.0,0.,12.0
1979-08-02 07:15:04.330 ,0,0,0.,12.0,0.,12.0,0.,12.0,0.,12.0
1979-08-02 07:15:16.330 ,4,0,0.,12.0,0.,12.0,0.,12.0,0.,12.0
1979-08-02 07:15:28.330 ,4,0,0.,12.0,0.,12.0,0.,12.0,0.,12.0
1979-08-02 07:15:40.330 ,4,0,0.,12.0,0.,12.0,0.,12.0,0.,12.0
1979-08-02 07:15:52.330 ,4,0,0.,12.0,0.,12.0,0.,12.0,0.,12.0
1979-08-02 07:16:04.330 ,5,0,0.,12.0,0.,12.0,0.,12.0,0.,12.0
1979-08-02 07:16:16.330 ,5,0,0.,12.0,0.,12.0,0.,12.0,0.,12.0
1979-08-02 07:16:28.330 ,5,0,0.,12.0,0.,12.0,0.,12.0,0.,12.0
1979-08-02 07:16:40.330 ,5,0,0.,12.0,0.,12.0,0.,12.0,0.,12.0
1979-08-02 07:16:52.330 ,6,0,0.,12.0,0.,12.0,0.,12.0,0.,12.0
1979-08-02 07:17:04.330 ,6,0,0.,12.0,0.,12.0,0.,12.0,0.,12.0
1979-08-02 07:17:16.330 ,6,0,0.,12.0,0.,12.0,0.,12.0,0.,12.0
1979-08-02 07:17:28.330 ,6,0,0.,12.0,0.,12.0,0.,12.0,0.,12.0
1979-08-02 07:17:40.330 ,7,0,0.,12.0,0.,12.0,0.,12.0,0.,12.0
1979-08-02 07:17:52.330 ,7,0,0.,12.0,0.,12.0,0.,12.0,0.,12.0
1979-08-02 07:18:04.330 ,7,0,0.,12.0,0.,12.0,0.,12.0,0.,12.0
1979-08-02 07:18:16.330 ,7,0,0.,12.0,0.,12.0,0.,12.0,0.,12.0
1979-08-02 07:18:28.330 ,7,0,0.,12.0,0.,12.0,0.,12.0,0.,12.0